| time (UTC) | temp C | wind direction | speed KPH | gust KPH | rain 1hr cm | rain 24hr cm | rain mn cm | humidity % | barometer mb |
| 20260505124507 | 23 | 160 | 1.6 | 6.4 | 0.00 | 0.00 | 0.00 | 89 | 1007.6 |
| 20260505123003 | 23 | 121 | 0.0 | 3.2 | 0.00 | 0.00 | 0.00 | 89 | 1007.3 |
| 20260505121559 | 22 | 176 | 0.0 | 6.4 | 0.00 | 0.00 | 0.00 | 89 | 1007.3 |
| 20260505120111 | 22 | 167 | 0.0 | 6.4 | 0.00 | 0.00 | 0.00 | 89 | 1007.6 |
| 20260505114552 | 22 | 109 | 0.0 | 8.0 | 0.00 | 0.00 | 0.00 | 89 | 1007.3 |
| 20260505113049 | 22 | 160 | 1.6 | 4.8 | 0.00 | 0.00 | 0.00 | 89 | 1007.0 |
| 20260505111545 | 22 | 134 | 0.0 | 3.2 | 0.00 | 0.00 | 0.00 | 89 | 1007.4 |
| 20260505101527 | 22 | 134 | 0.0 | 3.2 | 0.00 | 0.00 | 0.00 | 88 | 1007.3 |
| 20260505100026 | 22 | 124 | 1.6 | 4.8 | 0.00 | 0.00 | 0.00 | 88 | 1007.2 |
| 20260505094520 | 22 | 128 | 0.0 | 3.2 | 0.00 | 0.00 | 0.00 | 88 | 1007.3 |
| 20260505093019 | 22 | 128 | 0.0 | 4.8 | 0.00 | 0.00 | 0.00 | 88 | 1007.5 |
| 20260505091526 | 22 | 108 | 0.0 | 3.2 | 0.00 | 0.00 | 0.00 | 88 | 1007.5 |
| 20260505090035 | 22 | 98 | 0.0 | 6.4 | 0.00 | 0.00 | 0.00 | 87 | 1007.6 |
| 20260505084513 | 22 | 167 | 1.6 | 4.8 | 0.00 | 0.00 | 0.00 | 86 | 1007.5 |
| 20260505083009 | 22 | 98 | 0.0 | 8.0 | 0.00 | 0.00 | 0.00 | 86 | 1007.5 |
| 20260505081511 | 22 | 144 | 0.0 | 4.8 | 0.00 | 0.00 | 0.00 | 86 | 1007.7 |
| 20260505080001 | 22 | 169 | 0.0 | 4.8 | 0.00 | 0.00 | 0.00 | 86 | 1007.8 |
| 20260505074602 | 22 | 98 | 1.6 | 8.0 | 0.00 | 0.00 | 0.00 | 86 | 1007.9 |
| 20260505073111 | 22 | 104 | 0.0 | 4.8 | 0.00 | 0.00 | 0.00 | 86 | 1007.9 |
| 20260505071559 | 22 | 122 | 0.0 | 3.2 | 0.00 | 0.00 | 0.00 | 86 | 1008.1 |
| 20260505070053 | 22 | 168 | 0.0 | 4.8 | 0.00 | 0.00 | 0.00 | 87 | 1008.4 |
| 20260505064548 | 21 | 92 | 0.0 | 4.8 | 0.00 | 0.00 | 0.00 | 87 | 1008.6 |
| 20260505063046 | 21 | 125 | 0.0 | 1.6 | 0.00 | 0.00 | 0.00 | 86 | 1009.0 |
| 20260505061552 | 21 | 160 | 0.0 | 1.6 | 0.00 | 0.00 | 0.00 | 86 | 1009.0 |
| 20260505060044 | 21 | 153 | 0.0 | 4.8 | 0.00 | 0.00 | 0.00 | 85 | 1009.0 |
| 20260505054606 | 21 | 149 | 0.0 | 6.4 | 0.00 | 0.00 | 0.00 | 84 | 1009.1 |
| 20260505053054 | 21 | 129 | 0.0 | 4.8 | 0.00 | 0.00 | 0.00 | 85 | 1009.0 |
| 20260505051541 | 21 | 100 | 0.0 | 4.8 | 0.00 | 0.00 | 0.00 | 84 | 1009.2 |
| 20260505041537 | 21 | 175 | 0.0 | 8.0 | 0.00 | 0.00 | 0.00 | 83 | 1009.7 |
| 20260505040038 | 21 | 136 | 0.0 | 6.4 | 0.00 | 0.00 | 0.00 | 83 | 1009.8 |
| 20260505034538 | 21 | 157 | 0.0 | 9.7 | 0.00 | 0.00 | 0.00 | 82 | 1009.9 |
| 20260505033037 | 21 | 150 | 0.0 | 3.2 | 0.00 | 0.00 | 0.00 | 81 | 1009.9 |
| 20260505031546 | 21 | 154 | 0.0 | 3.2 | 0.00 | 0.00 | 0.00 | 81 | 1009.8 |
| 20260505030036 | 21 | 120 | 0.0 | 6.4 | 0.00 | 0.00 | 0.00 | 80 | 1009.8 |
| 20260505024540 | 21 | 150 | 0.0 | 4.8 | 0.00 | 0.00 | 0.00 | 79 | 1009.9 |
| 20260505023035 | 22 | 152 | 0.0 | 4.8 | 0.00 | 0.00 | 0.00 | 79 | 1009.8 |
| 20260505021535 | 22 | 139 | 0.0 | 8.0 | 0.00 | 0.00 | 0.00 | 78 | 1009.7 |
| 20260505020035 | 22 | 146 | 0.0 | 4.8 | 0.00 | 0.00 | 0.00 | 77 | 1009.7 |
| 20260505014537 | 22 | 152 | 1.6 | 4.8 | 0.00 | 0.00 | 0.00 | 76 | 1009.5 |
| 20260505013033 | 22 | 185 | 0.0 | 8.0 | 0.00 | 0.00 | 0.00 | 76 | 1009.4 |
| 20260505011535 | 22 | 148 | 1.6 | 8.0 | 0.00 | 0.00 | 0.00 | 76 | 1009.5 |
| 20260505010032 | 22 | 151 | 1.6 | 8.0 | 0.00 | 0.00 | 0.00 | 75 | 1009.4 |
| 20260505004544 | 23 | 174 | 1.6 | 9.7 | 0.00 | 0.00 | 0.00 | 73 | 1009.3 |
| 20260505003031 | 23 | 158 | 3.2 | 11.3 | 0.00 | 0.00 | 0.00 | 73 | 1009.3 |
| 20260505001531 | 23 | 136 | 1.6 | 8.0 | 0.00 | 0.00 | 0.00 | 72 | 1009.3 |
| 20260505000044 | 23 | 132 | 1.6 | 11.3 | 0.00 | 0.00 | 0.00 | 72 | 1009.4 |
| 20260504234627 | 23 | 110 | 1.6 | 11.3 | 0.00 | 0.00 | 0.00 | 71 | 1009.4 |
| 20260504233026 | 23 | 162 | 1.6 | 9.7 | 0.00 | 0.00 | 0.00 | 70 | 1009.6 |
| 20260504231524 | 23 | 179 | 3.2 | 12.9 | 0.00 | 0.00 | 0.00 | 70 | 1009.7 |
| 20260504230024 | 24 | 98 | 3.2 | 14.5 | 0.00 | 0.00 | 0.00 | 69 | 1010.1 |
| 20260504224523 | 24 | 193 | 3.2 | 12.9 | 0.00 | 0.00 | 0.00 | 69 | 1010.0 |
| 20260504223022 | 24 | 177 | 1.6 | 9.7 | 0.00 | 0.00 | 0.00 | 69 | 1010.3 |
| 20260504221519 | 24 | 153 | 1.6 | 9.7 | 0.00 | 0.00 | 0.00 | 69 | 1010.6 |
| 20260504220019 | 24 | 131 | 3.2 | 9.7 | 0.00 | 0.00 | 0.00 | 68 | 1010.6 |
| 20260504214518 | 25 | 73 | 3.2 | 11.3 | 0.00 | 0.00 | 0.00 | 67 | 1010.7 |
| 20260504213016 | 25 | 176 | 3.2 | 8.0 | 0.00 | 0.00 | 0.00 | 65 | 1010.8 |
| 20260504211515 | 25 | 87 | 3.2 | 9.7 | 0.00 | 0.00 | 0.00 | 65 | 1010.8 |
| 20260504210021 | 25 | 200 | 4.8 | 9.7 | 0.00 | 0.00 | 0.00 | 64 | 1011.1 |
| 20260504204513 | 25 | 158 | 1.6 | 8.0 | 0.00 | 0.00 | 0.00 | 65 | 1011.2 |
| 20260504203011 | 26 | 134 | 3.2 | 11.3 | 0.00 | 0.00 | 0.00 | 61 | 1011.4 |
| 20260504201513 | 26 | 158 | 1.6 | 8.0 | 0.00 | 0.00 | 0.00 | 60 | 1011.5 |
| 20260504200010 | 26 | 278 | 0.0 | 8.0 | 0.00 | 0.00 | 0.00 | 59 | 1011.8 |
| 20260504194507 | 26 | 182 | 3.2 | 8.0 | 0.00 | 0.00 | 0.00 | 61 | 1011.8 |
| 20260504193007 | 27 | 132 | 0.0 | 11.3 | 0.00 | 0.00 | 0.00 | 61 | 1012.2 |
| 20260504191506 | 27 | 120 | 0.0 | 9.7 | 0.00 | 0.00 | 0.00 | 59 | 1012.3 |
| 20260504190004 | 27 | 168 | 1.6 | 8.0 | 0.00 | 0.00 | 0.00 | 57 | 1012.4 |
| 20260504184502 | 27 | 110 | 1.6 | 8.0 | 0.00 | 0.00 | 0.00 | 57 | 1012.3 |
| 20260504183107 | 27 | 120 | 1.6 | 8.0 | 0.00 | 0.00 | 0.00 | 56 | 1012.5 |
| 20260504181600 | 26 | 251 | 1.6 | 8.0 | 0.00 | 0.00 | 0.00 | 62 | 1012.9 |
| 20260504180111 | 26 | 214 | 3.2 | 12.9 | 0.00 | 0.00 | 0.00 | 58 | 1013.0 |
| 20260504174555 | 26 | 176 | 3.2 | 11.3 | 0.00 | 0.00 | 0.00 | 56 | 1013.1 |
| 20260504173053 | 26 | 148 | 1.6 | 8.0 | 0.00 | 0.00 | 0.00 | 57 | 1013.4 |
| 20260504171550 | 26 | 153 | 4.8 | 12.9 | 0.00 | 0.00 | 0.00 | 58 | 1013.5 |